Location: Unspecified
(47.9110°N, 14.3980°E)
Time: 05:49:39
(UTC+00:00)

Cosmos 2360 - Pass Details

Date: 06 August 2020
Orbit: 844 x 858 km, 70.8° (Epoch: 23 September)

Event Time Altitude Azimuth Distance (km) Brightness Sun altitude
Rises 19:58:55 0° 333° (NNW) 3,443 8.9 -13.1°
Reaches altitude 10° 20:01:25 10° 336° (NNW) 2,503 7.8 -13.4°
Maximum altitude 20:07:09 68° 59° (ENE) 927 4.3 -14.1°
Enters shadow 20:11:00 21° 138° (SE) 1,813 5.3 -14.5°
